Terug naar catalogus

DMSP 5D-3 F16 DEB

ActiefSSO
NORAD 28056·DEBRIS·🇺🇸 United States

Gelanceerd Oct 18, 2003 vanaf Vandenberg Space Force Base

Loading…

Volgende Passages (komende 24 uur)

TLE

VersSource: Space-Track

Epoch: Sep 13, 2026, 22:57 UTC

1 28056U 03048C   26256.95686306  .00001288  00000-0  48764-3 0  9991
2 28056  98.7907 272.4119 0000925 263.2650  96.8428 14.32966170187168

Volg DMSP 5D-3 F16 DEB in realtime met AllMySat

Download on the App Store